DMSP 5D-2 F13 DEB, 42319

Orbit data source: Space-Track

DMSP 5D-2 F13 DEB, 42319 is space debris in SSO originally from a launch on Fri, 24 Mar 1995 UTC launched from the Air Force Western Test Range (AFWTR). Debris objects in space refer to the collection of defunct objects orbiting the Earth. Examples of debris include non-operational satellites, rocket bodies, and fragments generated from explosions, collisions, or faulty payload assembly.

Loading next visibility...
DMSP 5D-2 F13 DEB details
Identifier
42319, 1995-015JM
Orbit
SSO
Last TLE update14 hours ago
Origin
Flag of USUSAF SMC (US)
ManufacturerUnknown
MissionSpacecraft
Bus & MotorUnknown
MassUnknown
Launch date (UTC)
1995-03-24 (30 years ago)
Launch vehicleUnknown
Launch site
Air Force Western Test Range (AFWTR)
Object type
Payload
Rocket body
Debris
Shape & HBRUnknown
Radar Cross SectionSmall (<0.1 m²)

Expand to show TLE details & history

TLE from 14 hours ago
0 DMSP 5D-2 F13 DEB
1 42319U 95015JM  24339.78414351  .00012862  00000-0  51548-2 0  9997
2 42319  98.9001   0.5275 0027945 161.2197 199.0021 14.28176789498153
Epoch: 2024-12-04T18:49Z
Definitive object data (Epoch: 2024-12-04T18:49:09.999Z)
Latitude0.00001°
Longitude4.16151°
Altitude819.721 km
Speed7.433 km/s
True Right ascension00h 02m 06s
True Declination0° 00' 00"
Sunlit
Object was in daylight at TLE epoch
Visualization TLE readout
Latitude-33.93307°
Longitude178.75928°
Altitude798.904 km
Speed7.459 km/s
Apparent Right ascension14h 53m 30s
Apparent Declination-53° 13' 08"
Sunlit
Object is in daylight
Visualization observer readout
Local Sidereal Time07:14:18
Azimuth129.818° SE
Elevation-44.956°
Doppler factor1
Orbital elements
Apogee altitude815.034 km
Perigee altitude774.943 km
Semi-major axis7,173.125 km
Eccentricity0.0027945
Inclination98.9001°
RAAN0.5275°
Arg. of periapsis161.2197°
True anomaly198.89818°
Mean anomaly199.0021°
Eccentric anomaly198.9501°
Mean motion3.57257 °/min
BSTAR0.0051548
Orbital period100.77 mins
Loading maneuver chart data...

DMSP 5D-2 F13 DEB Visibility forecast

Observer location: undefined°, undefined

Span
Click to sort rows by Start time (UTC) header in descending order
Start Az.
Max El. time (UTC)
Max El. Az.
Max El.
End time (UTC)
End Az.
8 mins2024-12-05 13:54:06.898Z32.549° NE2024-12-05 13:58:06.898Z91.508° ESE31.911°2024-12-05 14:02:06.898Z161.639° S
6 mins2024-12-05 15:35:06.898Z335.095° NNW2024-12-05 15:38:06.898Z287.64° WNW22.485°2024-12-05 15:41:06.898Z246.862° WSW
8 mins2024-12-06 01:13:06.898Z146.262° SSE2024-12-06 01:17:06.898Z51.841° ENE40.33°2024-12-06 01:21:06.898Z355.771° N
4 mins2024-12-06 02:55:06.898Z247.312° WSW2024-12-06 02:57:06.898Z273.735° WNW15.487°2024-12-06 02:59:06.898Z298.243° NW
|